Weather History for San Carlos, CA

Change the Weather History Date:

Friday, February 28, 2014

  Actual Average Record
Temperature  
Mean Temperature 58 °F -  
Max Temperature 62 °F 63 °F 76 °F (1986)
Min Temperature 53 °F 44 °F 30 °F (1955)
Degree Days  
Heating Degree Days 8    
Growing Degree Days 8 (Base 50)    
Moisture  
Dew Point 51 °F    
Average Humidity 84    
Maximum Humidity 94    
Minimum Humidity 52    
Precipitation  
Precipitation 0.16 in - - ()
Sea Level Pressure  
Sea Level Pressure 29.44 in    
Wind  
Wind Speed 12 mph (SE)    
Max Wind Speed 28 mph    
Max Gust Speed 37 mph    
Visibility 7 miles    
Events Rain    
Averages and records for this station are not official NWS values.
T = Trace of Precipitation, MM = Missing Value Source: NWS Daily Summary

Daily Weather History Graph

Daily Weather History Graph

Search for Another Location

Airport:

Trip Planner

Search our weather history database for the weather conditions in past years. The results will help you decide how hot, cold, wet, or windy it might be!

Date:

Astronomy

Feb. 28, 2014 Rise Set
Actual Time 6:41 AM PST 6:01 PM PST
Civil Twilight 6:15 AM PST 6:28 PM PST
Nautical Twilight 5:45 AM PST 6:58 PM PST
Astronomical Twilight 5:14 AM PST 7:28 PM PST
Moon 5:59 AM PST (2/28) 5:44 PM PST (2/28)
Length of Visible Light 12h 12m
Length of Day
11h 20m
Waning Crescent, 0% of the Moon is Illuminated
Feb 28
Waning Crescent
Mar 1
New
Mar 8
First Quarter
Mar 16
Full
Mar 23
Last Quarter

Hourly Weather History & Observations

Time (PST) Temp. Dew Point Humidity Pressure Visibility Wind Dir Wind Speed Gust Speed Precip Events Conditions
12:10 AM 62.6 °F 46.4 °F 55% 29.51 in 10.0 mi SE 10.4 mph - N/A   Overcast
12:30 AM 62.6 °F 44.6 °F 52% 29.51 in 10.0 mi SSE 18.4 mph 27.6 mph N/A   Overcast
12:55 AM 59.0 °F 46.4 °F 63% 29.50 in 10.0 mi SE 27.6 mph 36.8 mph N/A Rain Light Rain
1:10 AM 57.2 °F 48.2 °F 72% 29.50 in 10.0 mi SE 23.0 mph 34.5 mph N/A Rain Light Rain
1:35 AM 55.4 °F 48.2 °F 77% 29.47 in 7.0 mi SE 15.0 mph 25.3 mph N/A Rain Light Rain
1:55 AM 55.4 °F 50.0 °F 82% 29.45 in 7.0 mi SE 16.1 mph - 0.01 in Rain Light Rain
2:15 AM 55.4 °F 50.0 °F 82% 29.44 in 7.0 mi SSE 12.7 mph - N/A Rain Light Rain
2:30 AM 53.6 °F 50.0 °F 88% 29.44 in 3.0 mi SSE 12.7 mph 19.6 mph 0.02 in Rain Light Rain
2:55 AM 53.6 °F 51.8 °F 94% 29.44 in 2.0 mi SE 11.5 mph 16.1 mph 0.08 in Rain Light Rain
3:15 AM 55.4 °F 51.8 °F 88% 29.44 in 4.0 mi SE 12.7 mph - N/A Rain Light Rain
3:30 AM 55.4 °F 53.6 °F 94% 29.44 in 3.0 mi SE 10.4 mph 17.3 mph 0.01 in Rain Light Rain
3:55 AM 55.4 °F 53.6 °F 94% 29.40 in 7.0 mi SE 12.7 mph - 0.02 in Rain Light Rain
4:15 AM 55.4 °F 51.8 °F 88% 29.40 in 7.0 mi SSE 9.2 mph - N/A Rain Light Rain
4:30 AM 55.4 °F 53.6 °F 94% 29.40 in 9.0 mi SSE 10.4 mph - N/A Rain Light Rain
4:50 AM 55.4 °F 53.6 °F 94% 29.40 in 7.0 mi ESE 5.8 mph - N/A Rain Light Rain
5:15 AM 55.4 °F 53.6 °F 94% 29.40 in 2.5 mi SSE 5.8 mph - N/A Rain Light Rain
5:30 AM 55.4 °F 53.6 °F 94% 29.40 in 3.0 mi SSE 8.1 mph - 0.01 in Rain Light Rain
5:50 AM 55.4 °F 53.6 °F 94% 29.41 in 2.5 mi SSE 6.9 mph - 0.04 in Rain Light Rain
6:15 AM 55.4 °F 53.6 °F 94% 29.40 in 3.0 mi SSE 6.9 mph - N/A Rain Light Rain
6:35 AM 55.4 °F 53.6 °F 94% 29.40 in 3.0 mi SSE 5.8 mph - N/A Rain Light Rain
6:50 AM 55.4 °F 53.6 °F 94% 29.39 in 2.0 mi Calm Calm - 0.01 in Rain Light Rain
6:55 AM 55.4 °F 53.6 °F 94% 29.39 in 3.0 mi SSW 3.5 mph - N/A Rain Light Rain
7:49 AM 57.2 °F 51.8 °F 82% 29.42 in 7.0 mi SE 9.2 mph - N/A   Mostly Cloudy
8:51 AM 57.2 °F 50.0 °F 77% 29.43 in 10.0 mi SE 13.8 mph 23.0 mph N/A   Overcast
9:48 AM 59.0 °F 50.0 °F 72% 29.44 in 10.0 mi South 9.2 mph - N/A   Overcast
10:49 AM 57.2 °F 51.8 °F 82% 29.43 in 10.0 mi SE 6.9 mph - N/A   Overcast
11:50 AM 57.2 °F 51.8 °F 82% 29.43 in 10.0 mi South 8.1 mph - N/A   Overcast
12:56 PM 57.2 °F 51.8 °F 82% 29.40 in 10.0 mi SSE 11.5 mph - N/A   Overcast
1:47 PM 59.0 °F 48.2 °F 67% 29.40 in 8.0 mi SSE 16.1 mph 27.6 mph N/A   Overcast
2:51 PM 57.2 °F 48.2 °F 72% 29.39 in 5.0 mi SSE 16.1 mph 21.9 mph N/A Rain Light Rain
3:47 PM 55.4 °F 50.0 °F 82% 29.40 in 7.0 mi North - - N/A Rain Light Rain
4:55 PM 55.4 °F 50.0 °F 82% 29.41 in 7.0 mi SE 6.9 mph - N/A   Mostly Cloudy
5:50 PM 55.4 °F 50.0 °F 82% 29.43 in 10.0 mi SE 9.2 mph - N/A   Mostly Cloudy
6:47 PM 55.4 °F 50.0 °F 82% 29.44 in 10.0 mi East 6.9 mph - N/A   Mostly Cloudy
7:55 PM 53.6 °F 50.0 °F 88% 29.45 in 10.0 mi SSE 6.9 mph - N/A   Clear
8:47 PM 53.6 °F 50.0 °F 88% 29.46 in 10.0 mi ESE 8.1 mph - N/A   Mostly Cloudy
9:10 PM 53.6 °F 50.0 °F 88% 29.47 in 9.0 mi SE 8.1 mph - N/A   Overcast
9:35 PM 53.6 °F 50.0 °F 88% 29.48 in 6.0 mi SE 9.2 mph - N/A   Overcast
9:55 PM 53.6 °F 50.0 °F 88% 29.48 in 9.0 mi SE 10.4 mph - N/A   Overcast
10:15 PM 53.6 °F 50.0 °F 88% 29.49 in 7.0 mi SSE 10.4 mph - N/A Rain Light Rain
10:30 PM 53.6 °F 50.0 °F 88% 29.48 in 10.0 mi SE 11.5 mph - N/A   Overcast
10:55 PM 53.6 °F 50.0 °F 88% 29.48 in 10.0 mi SE 12.7 mph - N/A   Mostly Cloudy
11:15 PM 53.6 °F 50.0 °F 88% 29.49 in 10.0 mi SE 11.5 mph - N/A   Mostly Cloudy
11:30 PM 53.6 °F 50.0 °F 88% 29.48 in 10.0 mi SE 11.5 mph 17.3 mph N/A   Overcast
11:55 PM 53.6 °F 50.0 °F 88% 29.48 in 10.0 mi SE 16.1 mph - N/A   Overcast